sat.trackr.live / text

‹ back to catalog

STARLINK-32669

NORAD 62213 · 2024-229X

PAYLOAD ACTIVE UNKNOWN

§ Identity

Operator
Country
US
Launch date
2024-12-04
Launch site
AFETR
Launch vehicle
Mass (kg)
RCS (m²)

Purposes: comms

External: N2YO · Heavens-Above · Gunter

§ Orbital elements

Epoch: 2026-09-21T08:43:19.530336Z

Period
94.27 min
Inclination
43.0003°
Eccentricity
0.0001675
Mean motion
15.27579286 rev/d
Perigee alt
481.9 km
Apogee alt
484.2 km
Semi-major
6,861.2 km
B*
3.6652e-4
RAAN
245.9498°
Arg perigee
285.8203°
Mean anomaly
74.2464°
Rev number
10,048

§ Raw data

STARLINK-326691 62213U 24229X   26264.36342049  .00009837  00000+0  36652-3 0  99952 62213  43.0003 245.9498 0001675 285.8203  74.2464 15.27579286100486

JSON: /api/v1/satellites/62213 · /tle

For live sub-satellite position, see the globe view (requires WebGL).

§ Visibility from observer

Set your observer location to see the next 7 days of passes ≥ 10°. The values pass through the URL so the page stays shareable.

No JS? Fill the form by hand. The geolocation button needs JavaScript.